Hourly Data Report for April 17, 2021

TORONTO CITY
ONTARIO
Current Station Operator: ECCC - MSC

43°40'00.000" N
79°24'00.000" W
112.50 m
6158355
71508
XTO

Download Data

Hourly Data (April 2021)
Hourly Data Report for April 17, 2021
TIME
LST
Temp Definition
°C
Dew Point Definition
°C
Rel Hum Definition
%
Precip. Amount Definition
mm

Wind Dir Definition
10's deg

Wind Spd Definition
km/h
Visibility Definition
km
Stn Press Definition
kPa
Hmdx Definition


Wind Chill Definition


Weather Definition


00:00 6.0 3.6 84 0.0       99.70     LegendNANA
01:00 5.2 3.2 87 0.0       99.70     LegendNANA
02:00 4.5 3.1 91 0.0       99.69     LegendNANA
03:00 4.1 2.8 91 0.0       99.72     LegendNANA
04:00 4.2 2.8 91 0.0       99.70     LegendNANA
05:00 4.0 2.5 90 0.0       99.68     LegendNANA
06:00 4.2 2.7 90 0.0       99.68     LegendNANA
07:00 5.2 3.5 89 0.0       99.72     LegendNANA
08:00 6.2 4.1 86 0.0       99.73     LegendNANA
09:00 6.9 4.0 82 0.0       99.78     LegendNANA
10:00 7.3 4.4 81 0.0       99.80     LegendNANA
11:00 9.1 5.7 79 0.0       99.77     LegendNANA
12:00 9.8 5.2 73 0.0       99.73     LegendNANA
13:00 10.5 4.6 67 0.0       99.69     LegendNANA
14:00 9.5 4.6 72 0.0       99.69     LegendNANA
15:00 10.3 4.1 65 0.0       99.64     LegendNANA
16:00 11.5 4.3 62 0.0       99.62     LegendNANA
17:00 11.6 3.3 57 0.0       99.61     LegendNANA
18:00 10.6 4.1 64 0.0       99.62     LegendNANA
19:00 10.3 5.1 70 0.0       99.63     LegendNANA
20:00 9.5 4.6 71 0.0       99.66     LegendNANA
21:00 9.7 2.6 61 0.0       99.68     LegendNANA
22:00 8.3 2.8 68 0.0       99.69     LegendNANA
23:00 7.9 3.2 72 0.0       99.69     LegendNANA

Notes on Data Quality.

Legend

  • E = Estimated
  • M = Missing
  • NA = Not Available*
  • [empty] = Indicates an unobserved value
Date modified: